Presure
98 89 100 99 120 92 125 98 106 133 134 96 132 100 123 113 115 130 121 137 135 127 114 129 147 134 119 118 114 106 115 127 126 118 117 136 145 170 162 151 179 207 217
102 132 105 95 129 99 127 119 103 122 107 129 109 120 132 131 136 134 135 104 118 109 122 114 131 102 138 124 97 99 118 113 110 137 160 138 186 169 200 158 111 202 217
128 138 132 136 101 105 105 116 118 125 105 123 120 129 121 115 113 104 110 97 113 137 106 90 104 129 134 115 106 115 120 136 158 147 131 180 155 193 209 212 186 199 199
136 125 137 126 141 115 132 135 123 119 114 121 131 133 138 126 116 143 151 104 139 111 126 103 106 121 119 109 142 131 109 134 138 140 158 168 158 186 203 199 214 149 197
156 99 126 128 115 95 143 136 116 111 131 144 132 124 104 121 132 148 118 151 120 104 112 105 120 119 117 128 148 118 139 148 144 195 151 191 200 193 196 118 165 174 200
96 122 105 125 90 102 138 144 143 121 151 145 152 128 143 127 98 111 108 103 139 102 140 124 140 122 131 140 113 150 141 156 143 202 143 193 192 191 148 135 184 187 126
120 94 122 135 93 115 125 138 135 129 149 134 115 130 129 119 125 116 108 108 107 113 148 123 121 115 111 138 150 138 143 158 202 190 198 183 196 179 184 191 184 211 200
115 127 137 117 130 140 139 128 136 137 114 126 118 121 139 130 122 143 149 123 118 171 126 117 137 129 124 134 141 148 157 186 191 189 183 176 171 188 184 199 191 206 194
133 124 135 131 137 131 142 140 146 130 139 150 104 131 138 122 118 132 122 120 144 134 146 129 136 137 141 145 181 190 199 188 193 179 179 186 192 184 184 195 204 207 194
99 144 138 75 133 119 141 137 121 127 152 127 114 137 118 129 128 124 122 127 127 159 133 219 202 187 188 173 193 189 180 185 177 185 186 191 180 185 199 211 189 205 242
133 124 125 129 140 133 125 117 127 122 130 128 125 125 151 110 124 128 127 133 171 159 195 219 144 196 194 197 185 183 189 190 190 190 185 183 186 192 200 196 220 202 236
126 138 136 137 125 125 144 130 107 106 120 117 120 123 125 126 119 133 137 203 217 135 168 174 155 198 188 192 195 197 193 186 183 186 188 194 192 216 236 253 237 239 231
125 138 136 116 116 133 133 124 120 117 123 141 129 124 118 131 172 184 134 202 187 198 181 202 186 192 207 196 203 201 188 185 184 188 195 198 217 209 221 200 220 227 208
139 132 139 125 121 121 124 119 119 128 121 132 126 118 128 142 151 135 176 202 205 180 195 211 184 197 200 188 185 187 182 199 196 200 214 196 206 206 248 224 201 221 243
137 133 131 122 123 134 124 118 139 191 127 122 129 127 140 126 188 107 157 158 147 196 200 197 202 175 189 196 185 198 189 194 215 215 196 231 235 224 220 233 234 239 246
136 133 129 117 122 131 120 140 138 120 127 122 153 137 167 194 200 204 201 173 196 197 191 184 191 200 199 182 184 194 202 194 197 207 229 214 224 226 240 247 241 243 230
149 131 120 118 141 140 131 119 123 131 125 133 136 208 187 208 206 190 200 191 190 181 196 189 186 182 185 192 195 204 207 204 194 208 218 197 216 219 207 250 245 242 238
125 116 120 117 106 138 115 118 129 122 182 189 191 216 205 206 183 213 194 193 184 192 188 189 183 183 199 214 206 194 205 223 202 206 220 206 208 256 248 233 229 224 219
118 121 124 122 121 119 116 124 135 175 134 201 163 205 214 194 193 198 190 184 185 190 201 195 184 212 192 198 199 208 209 220 192 217 209 209 206 251 233 222 214 211 208
124 119 120 118 120 224 125 205 226 218 219 210 207 196 204 201 110 188 195 186 187 183 183 205 196 195 191 196 226 208 208 202 210 213 198 206 211 222 219 207 204 211 214
144 122 123 123 222 218 135 127 205 207 202 197 211 195 192 182 189 201 197 196 200 210 196 191 194 190 215 212 206 197 207 205 212 205 204 206 222 219 253 239 222 208 208
134 133 126 199 193 202 219 218 213 212 213 201 208 206 206 194 192 195 205 196 197 198 192 191 214 213 196 200 209 212 207 202 202 200 205 207 221 246 232 224 215 217 219
204 202 206 165 210 170 211 219 210 210 227 213 208 213 219 211 202 205 202 197 194 210 219 204 188 201 215 207 211 205 199 191 199 200 202 216 242 227 214 219 223 227 222
207 134 204 208 204 203 202 211 224 215 209 204 207 204 200 198 195 199 214 226 208 208 202 203 210 216 214 208 205 203 193 199 201 194 214 229 228 208 214 220 221 225 257
236 244 215 213 225 212 212 203 198 211 213 210 209 208 216 222 205 216 212 187 201 203 224 215 210 222 220 206 200 194 195 201 202 205 223 226 209 213 219 243 270 277 264
213 214 211 221 217 219 218 217 215 214 220 214 211 213 218 206 195 190 202 207 226 209 208 213 208 204 199 198 194 196 196 199 203 216 227 209 212 237 255 264 258 258 258
Wind_Speed
30 28 44 42 43 29 44 38 40 45 50 40 51 42 42 42 45 53 46 60 56 51 50 55 65 60 59 61 59 56 66 73 75 72 70 81 84 79 87 92 79 71 71
36 56 44 37 55 39 48 38 39 41 40 43 41 42 57 57 57 59 60 50 51 46 51 51 62 55 68 65 48 51 66 68 66 82 83 84 76 86 71 95 61 74 74
54 62 56 63 41 41 40 42 43 46 42 38 42 52 42 45 49 49 52 39 47 59 47 43 56 67 71 66 63 66 68 75 77 83 80 77 88 78 75 76 71 72 72
54 54 61 59 70 46 51 58 43 48 42 41 52 54 62 47 47 63 69 49 61 49 53 55 59 65 64 64 76 73 68 77 81 84 83 88 88 81 78 79 83 71 78
58 28 59 58 47 26 64 56 45 40 55 68 50 41 47 52 50 64 51 66 55 53 52 50 59 63 67 70 81 74 79 82 82 78 89 80 77 80 83 69 69 76 86
32 55 46 59 21 36 66 72 67 43 72 68 74 43 60 56 39 58 56 54 64 53 65 55 73 63 71 77 73 86 83 87 83 76 75 79 84 83 75 78 87 86 75
54 19 52 63 24 48 49 63 58 51 70 54 48 43 49 52 52 59 59 62 63 65 66 60 59 68 70 80 86 78 85 89 74 81 80 83 84 81 85 95 85 101 97
50 52 67 50 55 68 63 51 63 56 50 60 44 46 59 58 55 73 82 61 65 68 64 68 71 66 68 78 80 82 89 82 79 78 86 82 78 91 92 98 97 105 88
62 52 53 56 66 50 65 65 73 52 56 76 49 55 63 56 59 63 60 63 71 70 81 69 72 73 77 86 80 80 74 83 77 86 88 92 96 91 91 103 108 104 88
32 72 60 29 58 51 68 56 47 46 77 46 51 57 54 57 60 62 64 66 67 83 70 62 69 83 71 88 74 81 85 87 87 93 97 100 89 97 109 110 88 107 76
62 52 51 50 72 62 47 48 56 47 46 47 51 52 56 59 64 65 66 69 84 70 72 69 86 67 81 77 86 87 86 90 90 95 95 96 96 104 109 103 106 86 72
56 67 63 62 48 50 64 56 45 48 51 52 55 56 57 60 66 67 70 83 66 72 84 83 88 75 87 89 92 95 93 93 94 96 98 110 105 108 88 71 80 73 74
60 65 60 52 53 57 57 53 53 53 54 64 56 59 60 66 79 84 70 74 79 86 85 80 84 89 91 91 93 97 91 92 93 100 105 111 98 93 96 86 87 78 76
61 50 60 52 57 55 56 56 57 58 59 59 60 60 65 82 82 74 69 84 79 88 87 82 84 91 92 90 92 94 93 106 110 115 119 97 104 94 79 83 80 77 72
60 49 50 54 57 65 60 58 70 72 61 61 63 66 79 69 90 57 81 80 86 86 85 88 91 89 93 101 96 107 98 106 108 105 102 95 88 92 86 81 79 73 70
63 55 52 52 57 64 63 73 68 66 64 65 75 79 81 89 90 88 90 81 89 89 85 86 93 101 101 95 97 109 112 109 110 110 89 97 92 88 81 76 76 76 76
79 58 54 54 75 70 61 65 68 67 68 71 77 88 86 82 86 81 88 87 87 87 92 92 92 96 99 105 105 104 104 105 101 96 93 97 92 89 87 71 72 72 72
47 53 54 56 46 63 63 68 69 67 77 80 83 80 81 83 80 89 86 89 87 91 89 94 95 98 104 102 105 105 107 89 96 93 87 95 94 74 70 69 70 71 73
51 52 56 61 64 64 66 71 73 78 76 85 78 85 84 82 82 87 83 86 89 96 105 105 97 101 101 101 103 101 97 90 93 89 92 92 90 77 75 75 78 79 79
52 56 59 61 67 64 71 68 71 75 83 81 80 78 85 87 69 83 90 89 91 90 92 99 93 94 97 102 87 98 94 98 93 92 91 91 91 83 81 84 85 84 84
67 58 61 65 56 58 71 70 67 73 72 72 77 81 81 79 85 96 94 97 99 86 86 90 95 95 94 92 96 97 96 97 94 94 94 95 93 90 84 84 86 88 89
59 60 64 53 59 56 64 74 73 71 76 78 86 92 90 82 83 89 91 88 89 91 90 94 95 88 95 96 94 94 96 97 95 97 99 101 101 95 93 91 92 95 95
48 49 52 60 53 63 60 70 69 72 81 80 83 84 83 83 83 86 86 86 88 86 82 85 91 91 91 95 94 96 95 92 96 99 101 104 101 98 99 102 103 104 103
49 64 51 52 54 57 62 60 56 59 64 64 67 70 72 75 78 82 85 78 83 82 86 88 89 89 89 91 93 94 93 97 99 93 107 104 101 104 106 108 110 109 110
51 48 50 54 57 57 57 59 60 62 66 64 67 70 72 69 75 73 75 82 82 84 85 86 90 87 88 91 94 94 97 103 104 106 106 102 105 108 111 114 105 100 104
40 39 42 46 50 52 54 56 57 58 58 60 62 64 62 66 73 78 78 80 78 83 86 87 89 91 94 96 98 101 103 106 108 110 104 105 107 110 107 104 107 107 109
Wind_Direction
257 265 263 271 268 283 273 282 271 281 274 279 278 282 283 274 282 295 286 291 285 288 292 291 287 284 288 290 291 291 290 287 288 290 291 284 283 284 282 281 282 295 302
258 265 262 269 269 276 275 272 285 278 282 282 275 284 278 287 276 290 290 288 287 290 292 290 289 287 286 286 285 289 289 289 290 286 286 290 290 281 287 282 277 297 309
266 263 265 264 270 272 272 275 279 283 279 283 285 287 284 277 284 282 282 289 285 290 288 286 287 287 286 286 288 289 288 290 287 285 290 291 284 290 300 299 298 302 303
257 262 262 262 257 269 281 275 282 280 277 286 287 289 280 291 282 287 284 285 288 284 287 285 286 290 287 286 290 292 289 294 292 291 290 286 287 294 303 302 305 285 302
251 276 267 272 269 284 271 276 283 276 286 279 284 293 280 287 292 289 291 285 284 289 286 286 285 283 286 292 293 285 296 292 290 291 288 294 301 299 304 282 289 297 302
273 261 272 274 268 286 278 273 279 282 276 284 281 292 293 286 294 272 281 291 294 290 295 283 293 283 295 297 286 291 295 291 292 293 287 298 302 306 296 293 299 298 287
258 274 274 278 285 283 283 286 287 285 278 283 279 289 280 268 279 284 279 282 284 280 291 282 280 281 283 295 295 296 296 291 298 299 301 299 300 302 301 300 300 302 299
263 273 272 274 286 275 279 283 283 291 290 281 275 274 297 282 277 296 292 279 277 284 284 281 290 286 284 291 296 296 293 295 300 299 300 299 299 300 300 299 299 300 298
269 268 280 276 272 282 280 284 279 282 293 288 279 288 294 281 284 292 283 283 290 293 294 286 294 295 294 294 295 296 299 300 295 299 299 299 297 299 299 300 301 302 299
263 259 279 289 282 276 277 283 282 285 282 284 284 295 283 288 287 281 286 285 285 296 292 289 291 293 297 291 296 297 297 296 300 300 300 296 299 300 300 301 299 301 294
262 269 271 275 275 276 278 279 281 284 286 286 284 283 282 286 284 286 285 291 286 292 291 292 297 292 297 293 296 295 296 296 294 294 296 299 299 299 301 301 300 298 293
264 270 273 276 274 276 284 283 285 287 285 283 283 285 284 283 283 288 285 288 296 292 294 294 295 289 297 296 298 297 294 297 297 297 299 299 298 299 299 296 298 294 294
265 270 275 278 280 289 289 284 284 286 287 291 287 284 286 290 289 285 292 289 284 291 291 289 296 296 290 296 293 294 296 297 298 298 298 299 298 298 299 298 297 296 292
272 277 278 275 277 283 283 287 289 289 288 289 287 287 292 299 294 292 285 286 284 291 291 284 296 297 298 296 296 299 299 299 299 298 299 300 301 300 301 298 295 293 289
273 279 278 272 282 287 285 286 287 269 288 289 292 291 297 289 282 288 291 291 296 290 286 293 291 294 298 298 296 296 298 298 301 301 302 303 303 300 299 299 298 295 292
273 280 278 282 281 285 284 286 287 289 291 291 288 295 282 276 278 274 281 286 287 290 294 295 298 296 296 297 297 298 297 298 297 299 303 300 301 301 300 298 296 295 294
267 271 274 287 282 286 287 288 289 290 288 292 294 265 278 272 273 283 283 289 291 294 292 296 295 297 299 298 299 297 297 296 298 301 301 300 300 300 300 297 297 296 295
270 275 277 282 290 287 285 284 284 287 274 273 275 267 273 274 282 277 287 287 292 292 293 293 294 297 297 297 295 296 298 299 299 299 299 300 300 302 298 296 294 293 293
267 272 279 277 278 282 284 284 287 274 291 264 278 269 270 281 285 281 287 289 291 292 290 291 294 291 294 294 295 297 298 298 299 298 298 298 298 303 296 294 294 293 291
266 269 272 277 277 248 281 260 251 254 253 264 266 279 273 276 295 286 285 289 289 292 292 288 291 293 294 296 295 296 296 297 296 297 298 299 300 300 295 293 292 290 289
273 270 270 271 252 255 279 281 264 263 270 275 269 275 280 285 283 280 282 284 285 287 290 292 293 294 296 295 295 295 296 296 297 298 301 301 301 299 299 293 291 288 287
273 267 271 262 260 268 257 253 259 264 263 270 270 271 274 279 284 284 282 285 289 292 292 291 294 293 293 293 293 295 296 298 300 302 302 303 304 303 300 296 293 292 291
256 258 260 270 259 272 263 261 266 267 266 271 272 274 277 278 281 283 285 288 289 292 293 292 291 291 291 293 292 294 295 299 302 302 302 304 303 302 300 299 298 298 297
249 272 258 257 262 264 265 267 266 267 271 275 278 280 281 283 284 285 287 291 289 291 290 290 290 290 288 290 292 295 299 301 300 300 303 303 302 300 300 300 299 297 295
255 249 260 259 255 262 265 273 277 274 274 278 279 280 283 287 286 289 289 288 289 290 291 290 292 295 294 295 298 299 300 300 301 302 301 300 300 300 299 298 296 294 294
256 261 260 259 263 267 271 275 277 279 281 281 284 285 289 287 285 286 289 291 293 292 292 296 297 297 298 298 299 299 301 300 301 299 300 298 298 299 299 298 296 295 294